TRP340 MKJP-LPPD

Flight info

Callsign TRP340
Flight time N/A
Altitude 30000
Route ENEKA7 KEBET UM594 GABUN/N0464F310 UM594 ALBBE UB882 GOVET M594 GTK A554 NETTA/N0463F330 A554 CERDA M594 MLLER/M077F330 M594 AMENO DCT 33N050W/M077F350 36N040W DCT INBOX DCT SOMUL
Aircraft A321/M-SDE3FGHIRWY/LB1

Departure

Time 2026-05-08 05:42
Airport Norman Manley International Airport (MKJP)

Arrival

Time N/A
Airport João Paulo II Airport (LPPD)
Time Latitude Longitude Altitude Speed Heading
2026-05-08 05:27 17.93630 -76.78050 25 ft 0 kts 113°
2026-05-08 05:33 17.93631 -76.78051 24 ft 2 kts 113°
2026-05-08 05:33 17.93639 -76.78073 24 ft 4 kts 116°
2026-05-08 05:33 17.93654 -76.78093 24 ft 4 kts 162°
2026-05-08 05:34 17.93678 -76.78093 24 ft 4 kts 202°
2026-05-08 05:34 17.93693 -76.78086 24 ft 1 kts 203°
2026-05-08 05:34 17.93695 -76.78085 24 ft 0 kts 203°
2026-05-08 05:36 17.93694 -76.78085 24 ft 0 kts 203°
2026-05-08 05:36 17.93694 -76.78086 24 ft 0 kts 203°
2026-05-08 05:37 17.93678 -76.78093 24 ft 6 kts 203°
2026-05-08 05:37 17.93624 -76.78117 24 ft 11 kts 203°
2026-05-08 05:37 17.93551 -76.78150 24 ft 11 kts 203°
2026-05-08 05:37 17.93523 -76.78209 24 ft 10 kts 289°
2026-05-08 05:38 17.93556 -76.78300 24 ft 17 kts 292°
2026-05-08 05:38 17.93608 -76.78434 24 ft 23 kts 292°
2026-05-08 05:38 17.93678 -76.78609 25 ft 29 kts 293°
2026-05-08 05:38 17.93753 -76.78802 25 ft 28 kts 290°
2026-05-08 05:39 17.93821 -76.78989 24 ft 27 kts 291°
2026-05-08 05:39 17.93889 -76.79167 24 ft 26 kts 292°
2026-05-08 05:39 17.93956 -76.79334 24 ft 24 kts 292°
2026-05-08 05:39 17.94019 -76.79493 24 ft 23 kts 291°
2026-05-08 05:40 17.94076 -76.79645 24 ft 22 kts 290°
2026-05-08 05:40 17.94105 -76.79794 24 ft 20 kts 279°
2026-05-08 05:40 17.94078 -76.79908 25 ft 11 kts 208°
2026-05-08 05:40 17.94020 -76.79915 24 ft 8 kts 144°
2026-05-08 05:41 17.93986 -76.79832 25 ft 30 kts 111°
2026-05-08 05:41 17.93824 -76.79413 25 ft 93 kts 111°
2026-05-08 05:41 17.93508 -76.78597 25 ft 147 kts 112°
2026-05-08 05:41 17.93070 -76.77464 178 ft 177 kts 112°
2026-05-08 05:42 17.92616 -76.76280 945 ft 173 kts 111°
2026-05-08 05:42 17.92175 -76.75101 1694 ft 174 kts 110°
2026-05-08 05:42 17.91733 -76.73895 2190 ft 182 kts 110°
2026-05-08 05:42 17.91236 -76.72630 2370 ft 195 kts 112°
2026-05-08 05:43 17.90672 -76.71256 2456 ft 214 kts 112°
2026-05-08 05:43 17.90057 -76.69736 2508 ft 240 kts 112°
2026-05-08 05:43 17.89384 -76.68052 2862 ft 251 kts 112°
2026-05-08 05:43 17.88717 -76.66378 3688 ft 251 kts 112°
2026-05-08 05:44 17.88038 -76.64668 4312 ft 254 kts 111°
2026-05-08 05:44 17.87358 -76.62950 4985 ft 256 kts 111°
2026-05-08 05:44 17.86672 -76.61215 5600 ft 259 kts 111°
2026-05-08 05:44 17.85980 -76.59466 6242 ft 260 kts 111°
2026-05-08 05:45 17.85290 -76.57720 6823 ft 264 kts 111°
2026-05-08 05:45 17.84583 -76.55930 7371 ft 267 kts 111°
2026-05-08 05:45 17.83864 -76.54112 7908 ft 271 kts 111°
2026-05-08 05:45 17.83139 -76.52276 8441 ft 273 kts 111°
2026-05-08 05:46 17.82416 -76.50414 8922 ft 278 kts 111°
2026-05-08 05:46 17.81684 -76.48529 9430 ft 280 kts 111°
2026-05-08 05:46 17.80946 -76.46628 9882 ft 284 kts 111°
2026-05-08 05:46 17.80194 -76.44692 10296 ft 291 kts 111°
2026-05-08 05:47 17.79406 -76.42664 10381 ft 309 kts 111°
2026-05-08 05:47 17.78571 -76.40517 10466 ft 327 kts 111°
2026-05-08 05:47 17.77690 -76.38254 10546 ft 343 kts 111°
2026-05-08 05:47 17.76769 -76.35887 10676 ft 357 kts 111°
2026-05-08 05:48 17.75828 -76.33474 11178 ft 358 kts 111°
2026-05-08 05:48 17.74880 -76.31042 11589 ft 362 kts 111°
2026-05-08 05:48 17.73922 -76.28584 12030 ft 365 kts 111°
2026-05-08 05:48 17.72956 -76.26110 12487 ft 367 kts 111°
2026-05-08 05:49 17.72096 -76.23588 12947 ft 368 kts 102°
2026-05-08 05:49 17.71841 -76.20931 13404 ft 368 kts 87°
2026-05-08 05:49 17.72280 -76.18293 13852 ft 368 kts 72°
2026-05-08 05:49 17.73078 -76.15780 14295 ft 369 kts 71°
2026-05-08 05:50 17.73920 -76.13233 14730 ft 371 kts 70°
2026-05-08 05:50 17.74783 -76.10678 15172 ft 372 kts 70°
2026-05-08 05:50 17.75661 -76.08115 15604 ft 374 kts 70°
2026-05-08 05:50 17.76548 -76.05547 16035 ft 375 kts 70°
2026-05-08 05:51 17.77441 -76.02979 16525 ft 374 kts 69°
2026-05-08 05:51 17.78337 -76.00412 16958 ft 375 kts 69°
2026-05-08 05:51 17.79241 -75.97828 17359 ft 377 kts 69°
2026-05-08 05:51 17.80147 -75.95246 17764 ft 378 kts 69°
2026-05-08 05:52 17.81059 -75.92646 18152 ft 380 kts 69°
2026-05-08 05:52 17.81976 -75.90036 18512 ft 382 kts 69°
2026-05-08 05:52 17.82895 -75.87417 18881 ft 384 kts 69°
2026-05-08 05:52 17.83819 -75.84786 19240 ft 385 kts 69°
2026-05-08 05:53 17.84749 -75.82141 19568 ft 387 kts 69°
2026-05-08 05:53 17.85682 -75.79484 19930 ft 388 kts 69°
2026-05-08 05:53 17.86620 -75.76812 20244 ft 390 kts 69°
2026-05-08 05:53 17.87560 -75.74134 20534 ft 393 kts 69°
2026-05-08 05:54 17.88508 -75.71433 20870 ft 394 kts 69°
2026-05-08 05:54 17.89457 -75.68728 21183 ft 395 kts 69°
2026-05-08 05:54 17.90410 -75.66011 21458 ft 397 kts 69°
2026-05-08 05:54 17.91364 -75.63287 21772 ft 398 kts 68°
2026-05-08 05:55 17.92324 -75.60547 22037 ft 400 kts 68°
2026-05-08 05:55 17.93286 -75.57801 22340 ft 401 kts 68°
2026-05-08 05:55 17.94250 -75.55047 22615 ft 403 kts 68°
2026-05-08 05:55 17.95218 -75.52280 22866 ft 405 kts 68°
2026-05-08 05:56 17.96191 -75.49500 23133 ft 406 kts 68°
2026-05-08 05:56 17.97165 -75.46713 23382 ft 407 kts 68°
2026-05-08 05:56 17.98143 -75.43916 23646 ft 408 kts 68°
2026-05-08 05:56 17.99123 -75.41109 23850 ft 410 kts 68°
2026-05-08 05:57 18.00105 -75.38296 24099 ft 411 kts 68°
2026-05-08 05:57 18.01092 -75.35467 24246 ft 414 kts 68°
2026-05-08 05:57 18.02074 -75.32654 24415 ft 416 kts 68°
2026-05-08 05:57 18.03069 -75.29798 24639 ft 417 kts 68°
2026-05-08 05:58 18.04071 -75.26927 24775 ft 420 kts 68°
2026-05-08 05:58 18.05075 -75.24045 24994 ft 420 kts 68°
2026-05-08 05:58 18.06081 -75.21158 25150 ft 422 kts 68°
2026-05-08 05:58 18.07093 -75.18251 25293 ft 424 kts 68°
2026-05-08 05:59 18.08106 -75.15338 25487 ft 425 kts 68°
2026-05-08 05:59 18.09124 -75.12412 25636 ft 427 kts 68°
2026-05-08 05:59 18.10145 -75.09475 25756 ft 429 kts 68°
2026-05-08 05:59 18.11168 -75.06532 25966 ft 428 kts 68°
2026-05-08 06:00 18.12191 -75.03586 26101 ft 430 kts 68°
2026-05-08 06:00 18.13219 -75.00625 26223 ft 432 kts 68°
2026-05-08 06:00 18.14248 -74.97659 26395 ft 433 kts 68°
2026-05-08 06:00 18.15282 -74.94680 26530 ft 434 kts 68°
2026-05-08 06:01 18.16316 -74.91696 26671 ft 435 kts 68°
2026-05-08 06:01 18.17354 -74.88701 26821 ft 436 kts 68°
2026-05-08 06:01 18.18395 -74.85697 26918 ft 438 kts 68°
2026-05-08 06:01 18.19440 -74.82681 27070 ft 439 kts 68°
2026-05-08 06:02 18.20485 -74.79661 27202 ft 440 kts 68°
2026-05-08 06:02 18.21532 -74.76634 27318 ft 441 kts 68°
2026-05-08 06:02 18.22569 -74.73637 27466 ft 442 kts 68°
2026-05-08 06:02 18.23679 -74.70578 27591 ft 442 kts 64°
2026-05-08 06:03 18.25039 -74.67732 27705 ft 441 kts 58°
2026-05-08 06:03 18.26746 -74.65054 27841 ft 440 kts 51°
2026-05-08 06:03 18.28748 -74.62623 27947 ft 440 kts 45°
2026-05-08 06:03 18.30860 -74.60287 28096 ft 440 kts 45°
2026-05-08 06:04 18.32968 -74.57970 28307 ft 439 kts 45°
2026-05-08 06:04 18.37217 -74.53324 28480 ft 442 kts 45°
2026-05-08 06:04 18.39354 -74.50999 28652 ft 441 kts 45°
2026-05-08 06:05 18.41487 -74.48682 28822 ft 440 kts 44°
2026-05-08 06:05 18.43600 -74.46390 28975 ft 440 kts 44°
2026-05-08 06:05 18.45732 -74.44081 29104 ft 441 kts 44°
2026-05-08 06:05 18.47872 -74.41766 29237 ft 441 kts 44°
2026-05-08 06:06 18.50010 -74.39453 29405 ft 440 kts 44°
2026-05-08 06:06 18.52150 -74.37141 29558 ft 440 kts 44°
2026-05-08 06:06 18.54285 -74.34835 29752 ft 438 kts 44°
2026-05-08 06:06 18.56413 -74.32538 29945 ft 439 kts 44°
2026-05-08 06:07 18.58551 -74.30231 30002 ft 441 kts 44°
2026-05-08 06:07 18.62845 -74.25598 30019 ft 440 kts 44°
2026-05-08 06:08 18.67125 -74.20980 30021 ft 440 kts 44°
2026-05-08 06:08 18.70686 -74.17136 30020 ft 440 kts 44°
2026-05-08 06:09 18.75665 -74.11762 30020 ft 440 kts 44°
2026-05-08 06:09 18.79945 -74.07124 30019 ft 442 kts 45°
2026-05-08 06:10 18.84090 -74.02347 30019 ft 442 kts 46°
2026-05-08 06:10 18.87535 -73.98354 30019 ft 442 kts 46°
2026-05-08 06:11 18.91666 -73.93568 30019 ft 441 kts 46°
2026-05-08 06:11 18.95949 -73.88927 30018 ft 441 kts 44°
2026-05-08 06:12 19.00291 -73.84327 30018 ft 442 kts 44°
2026-05-08 06:12 19.04633 -73.79726 30018 ft 442 kts 44°
2026-05-08 06:13 19.08977 -73.75122 30017 ft 442 kts 44°
2026-05-08 06:13 19.13322 -73.70516 30017 ft 443 kts 44°
2026-05-08 06:14 19.17675 -73.65897 30017 ft 443 kts 44°
2026-05-08 06:14 19.22024 -73.61281 30016 ft 443 kts 44°
2026-05-08 06:15 19.26367 -73.56667 30015 ft 442 kts 44°
2026-05-08 06:15 19.30682 -73.52075 30014 ft 439 kts 44°
2026-05-08 06:16 19.34938 -73.47420 30014 ft 440 kts 44°
2026-05-08 06:16 19.39183 -73.42763 30014 ft 440 kts 44°
2026-05-08 06:17 19.45565 -73.35761 30014 ft 440 kts 44°
2026-05-08 06:17 19.49782 -73.31129 30014 ft 440 kts 45°
2026-05-08 06:18 19.53972 -73.26397 30015 ft 440 kts 45°
2026-05-08 06:18 19.58154 -73.21658 30015 ft 441 kts 45°
2026-05-08 06:19 19.62346 -73.16907 30015 ft 441 kts 45°
2026-05-08 06:19 19.66559 -73.12185 30015 ft 440 kts 44°
2026-05-08 06:20 19.70909 -73.07606 30016 ft 440 kts 43°
2026-05-08 06:20 19.75274 -73.03026 30016 ft 441 kts 43°
2026-05-08 06:21 19.79532 -72.98333 30022 ft 442 kts 46°
2026-05-08 06:21 19.83708 -72.93542 30023 ft 442 kts 46°
2026-05-08 06:22 19.87913 -72.88823 30023 ft 441 kts 44°
2026-05-08 06:22 19.92207 -72.84157 30023 ft 441 kts 44°
2026-05-08 06:23 19.96505 -72.79487 30023 ft 442 kts 44°
2026-05-08 06:23 20.00807 -72.74804 30023 ft 442 kts 44°
2026-05-08 06:24 20.05113 -72.70091 30023 ft 444 kts 44°
2026-05-08 06:24 20.09389 -72.65408 30023 ft 444 kts 44°
2026-05-08 06:25 20.13462 -72.60462 30023 ft 445 kts 48°
2026-05-08 06:25 20.17463 -72.55434 30023 ft 445 kts 48°
2026-05-08 06:26 20.21470 -72.50398 30023 ft 445 kts 48°
2026-05-08 06:26 20.25469 -72.45367 30023 ft 445 kts 48°
2026-05-08 06:27 20.29468 -72.40336 30023 ft 445 kts 48°
2026-05-08 06:27 20.33470 -72.35297 30023 ft 445 kts 48°
2026-05-08 06:28 20.37467 -72.30262 30023 ft 445 kts 48°
2026-05-08 06:28 20.41477 -72.25226 30021 ft 445 kts 46°
2026-05-08 06:29 20.45784 -72.20495 30024 ft 444 kts 44°
2026-05-08 06:29 20.50134 -72.15801 30026 ft 444 kts 44°
2026-05-08 06:30 20.54477 -72.11114 30027 ft 444 kts 44°
2026-05-08 06:30 20.58796 -72.06450 30028 ft 445 kts 44°
2026-05-08 06:31 20.63171 -72.01724 30029 ft 445 kts 44°
2026-05-08 06:31 20.67489 -71.97058 30030 ft 445 kts 44°
2026-05-08 06:32 20.71837 -71.92355 30031 ft 444 kts 44°
2026-05-08 06:32 20.76158 -71.87676 30032 ft 444 kts 44°
2026-05-08 06:33 20.80499 -71.82974 30033 ft 444 kts 44°
2026-05-08 06:33 20.84833 -71.78275 30034 ft 444 kts 44°
2026-05-08 06:34 20.89167 -71.73572 30035 ft 444 kts 44°
2026-05-08 06:34 20.93504 -71.68862 30036 ft 444 kts 44°
2026-05-08 06:35 20.97836 -71.64154 30037 ft 443 kts 44°
2026-05-08 06:35 21.02162 -71.59434 30039 ft 443 kts 44°
2026-05-08 06:36 21.06472 -71.54713 30041 ft 444 kts 44°
2026-05-08 06:36 21.10763 -71.50017 30042 ft 443 kts 44°
2026-05-08 06:37 21.15083 -71.45290 30044 ft 444 kts 44°
2026-05-08 06:37 21.19404 -71.40562 30046 ft 444 kts 44°
2026-05-08 06:38 21.23725 -71.35833 30047 ft 444 kts 44°
2026-05-08 06:38 21.28046 -71.31102 30049 ft 444 kts 44°
2026-05-08 06:39 21.32369 -71.26366 30050 ft 444 kts 44°
2026-05-08 06:39 21.36696 -71.21623 30051 ft 444 kts 44°
2026-05-08 06:40 21.41017 -71.16883 30051 ft 444 kts 44°
2026-05-08 06:40 21.45463 -71.12291 30052 ft 443 kts 38°
2026-05-08 06:41 21.50253 -71.08121 30052 ft 443 kts 37°
2026-05-08 06:41 21.55051 -71.03960 30051 ft 443 kts 37°
2026-05-08 06:42 21.59849 -70.99805 30051 ft 443 kts 37°
2026-05-08 06:42 21.64657 -70.95646 30050 ft 444 kts 37°
2026-05-08 06:43 21.69443 -70.91507 30049 ft 444 kts 37°
2026-05-08 06:43 21.74258 -70.87344 30048 ft 445 kts 37°
2026-05-08 06:44 21.79090 -70.83165 30049 ft 445 kts 37°
2026-05-08 06:44 21.83843 -70.78870 30050 ft 447 kts 40°
2026-05-08 06:45 21.88421 -70.74330 30050 ft 448 kts 41°
2026-05-08 06:45 21.93002 -70.69779 30049 ft 449 kts 41°
2026-05-08 06:46 21.97596 -70.65216 30049 ft 449 kts 41°
2026-05-08 06:46 22.02191 -70.60650 30049 ft 451 kts 41°
2026-05-08 06:47 22.06818 -70.56051 30048 ft 452 kts 41°
2026-05-08 06:47 22.11418 -70.51478 30049 ft 452 kts 41°
2026-05-08 06:48 22.16045 -70.46873 30049 ft 452 kts 41°
2026-05-08 06:48 22.20673 -70.42267 30049 ft 453 kts 41°
2026-05-08 06:49 22.25308 -70.37647 30048 ft 453 kts 41°
2026-05-08 06:49 22.29937 -70.33031 30048 ft 453 kts 41°
2026-05-08 06:50 22.34577 -70.28428 30048 ft 453 kts 40°
2026-05-08 06:50 22.39302 -70.23918 30047 ft 453 kts 39°
2026-05-08 06:51 22.44032 -70.19414 30047 ft 453 kts 39°
2026-05-08 06:51 22.48762 -70.14911 30047 ft 453 kts 39°
2026-05-08 06:52 22.53500 -70.10400 30047 ft 453 kts 39°
2026-05-08 06:52 22.58234 -70.05891 30046 ft 454 kts 39°
2026-05-08 06:53 22.62973 -70.01375 30046 ft 454 kts 39°
2026-05-08 06:53 22.67685 -69.96883 30046 ft 454 kts 40°
2026-05-08 06:54 22.72419 -69.92367 30046 ft 453 kts 40°
2026-05-08 06:54 22.76803 -69.87459 30047 ft 455 kts 50°
2026-05-08 06:55 22.80745 -69.82079 30045 ft 456 kts 50°
2026-05-08 06:55 22.84687 -69.76683 30045 ft 456 kts 50°
2026-05-08 06:56 22.88623 -69.71286 30047 ft 456 kts 50°
2026-05-08 06:56 22.92553 -69.65891 30050 ft 456 kts 50°
2026-05-08 06:57 22.95824 -69.61394 30051 ft 456 kts 50°
2026-05-08 06:57 22.99752 -69.55987 30051 ft 456 kts 50°
2026-05-08 06:58 23.03679 -69.50575 30051 ft 456 kts 50°
2026-05-08 06:58 23.07599 -69.45167 30050 ft 456 kts 51°
2026-05-08 06:59 23.11520 -69.39751 30050 ft 456 kts 51°
2026-05-08 06:59 23.15436 -69.34334 30050 ft 456 kts 51°
2026-05-08 07:00 23.19350 -69.28915 30049 ft 455 kts 51°
2026-05-08 07:00 23.23257 -69.23500 30049 ft 455 kts 51°
2026-05-08 07:01 23.27152 -69.18095 30049 ft 454 kts 51°
2026-05-08 07:01 23.31044 -69.12688 30049 ft 453 kts 51°
2026-05-08 07:02 23.34909 -69.07314 30049 ft 453 kts 51°
2026-05-08 07:02 23.38787 -69.01916 30048 ft 453 kts 51°
2026-05-08 07:03 23.42664 -68.96514 30048 ft 452 kts 51°
2026-05-08 07:03 23.46530 -68.91120 30048 ft 452 kts 51°
2026-05-08 07:04 23.50390 -68.85728 30048 ft 450 kts 51°
2026-05-08 07:04 23.54239 -68.80348 30048 ft 450 kts 51°
2026-05-08 07:05 23.58084 -68.74965 30048 ft 450 kts 51°
2026-05-08 07:05 23.61905 -68.69561 30048 ft 450 kts 52°
2026-05-08 07:06 23.65719 -68.64169 30047 ft 448 kts 51°
2026-05-08 07:06 23.69531 -68.58789 30047 ft 448 kts 51°
2026-05-08 07:07 23.73346 -68.53410 30047 ft 448 kts 51°
2026-05-08 07:07 23.77165 -68.48027 30047 ft 448 kts 51°
2026-05-08 07:08 23.80962 -68.42677 30047 ft 448 kts 51°
2026-05-08 07:08 23.84769 -68.37310 30047 ft 447 kts 51°
2026-05-08 07:09 23.88573 -68.31947 30054 ft 447 kts 51°
2026-05-08 07:09 23.92386 -68.26567 30055 ft 447 kts 51°
2026-05-08 07:10 23.96089 -68.21116 30055 ft 447 kts 53°
2026-05-08 07:10 23.99748 -68.15620 30055 ft 447 kts 53°
2026-05-08 07:11 24.03407 -68.10124 30055 ft 447 kts 53°
2026-05-08 07:11 24.07063 -68.04635 30055 ft 447 kts 53°